This demonstration page uses our WeatherBlox Daily Observations layout. Learn more.

Left ArrowRight Arrow

Hourly Observations for July 19, 2022

Temp ( °F °C ) Dew Point ( °F °C ) Humidity (%) Winds ( mph kmh ) Pressure ( in mb ) Visibility ( mi km ) Precip ( " mm )
12:59 am 00:59 Partly Cloudy 81 27.2 74 23.3 79 79 SSW 10 17 29.91 1013 10 16 0.00 0.00
1:59 am 01:59 Partly Cloudy 81 27.2 74 23.3 79 79 SW 9 15 29.90 1013 10 16 0.00 0.00
2:59 am 02:59 Partly Cloudy 81 27.2 74 23.3 79 79 SW 9 15 29.89 1012 10 16 0.00 0.00
3:59 am 03:59 Partly Cloudy 79 26.1 74 23.3 85 85 SW 9 15 29.89 1012 10 16 0.00 0.00
4:59 am 04:59 Partly Cloudy 79 26.1 74 23.3 85 85 WSW 9 15 29.89 1012 10 16 0.00 0.00
5:59 am 05:59 Mostly Clear 77 25 74 23.3 90 90 SW 8 13 29.89 1012 10 16 0.00 0.00
6:59 am 06:59 Mostly Sunny 79 26.1 74 23.3 85 85 SW 7 11 29.90 1013 10 16 0.00 0.00
7:59 am 07:59 Partly Cloudy 81 27.2 74 23.3 79 79 WSW 9 15 29.91 1013 10 16 0.00 0.00
8:53 am 08:53 Mostly Cloudy 81 27 73 23 79 79 WSW 10 17 29.92 1013 10 16 0.00 0.00
8:59 am 08:59 Mostly Cloudy 81 27.2 74 23.3 79 79 VRB 7 11 29.92 1013 10 16 0.00 0.00
9:59 am 09:59 Mostly Cloudy 82 27.8 74 23.3 77 77 VRB 6 9 29.92 1013 10 16 0.00 0.00
10:59 am 10:59 Mostly Cloudy 83 28.3 74 23.3 74 74 WSW 9 15 29.92 1013 10 16 0.00 0.00
11:59 am 11:59 Mostly Sunny 85 29.4 74 23.3 70 70 SW 6 9 29.91 1013 10 16 0.00 0.00
12:59 pm 12:59 Partly Cloudy 88 31.1 74 23.3 63 63 VRB 6 9 29.90 1013 10 16 0.00 0.00
1:59 pm 13:59 Mostly Cloudy 90 32.2 74 23.3 59 59 WSW 9 15 29.88 1012 10 16 0.00 0.00
2:59 pm 14:59 Mostly Cloudy 90 32.2 72 22.2 56 56 W 9 15 29.87 1012 10 16 0.00 0.00
3:59 pm 15:59 Mostly Cloudy 89 31.7 72 22.2 57 57 WNW 12 19 29.86 1011 10 16 0.00 0.00
4:59 pm 16:59 Mostly Cloudy 89 31.7 72 22.2 57 57 NE 10 17 29.85 1011 10 16 0.00 0.00
5:59 pm 17:59 Mostly Cloudy 86 30 72 22.2 63 63 NE 9 15 29.85 1011 10 16 0.00 0.00
6:59 pm 18:59 Mostly Cloudy 86 30 74 23.3 67 67 ESE 6 9 29.85 1011 10 16 0.00 0.00
7:50 pm 19:50 Mostly Cloudy with Thunderstorms 86 30 74 23.3 67 67 NNW 15 24 29.88 1012 10 16 0.00 0.00
7:59 pm 19:59 Mostly Cloudy with Thunderstorms 84 28.9 74 23.3 72 72 N 10 17 29.87 1012 10 16 0.00 0.00
8:31 pm 20:31 Mostly Cloudy 84 28.9 74 23.3 72 72 N 7 11 29.89 1012 10 16 0.00 0.00
8:59 pm 20:59 Mostly Cloudy 82 27.8 74 23.3 77 77 ENE 5 7 29.88 1012 10 16 0.00 0.00
9:59 pm 21:59 Mostly Cloudy 82 27.8 74 23.3 77 77 Calm 29.89 1012 10 16 0.00 0.00
10:59 pm 22:59 Partly Cloudy 82 27.8 74 23.3 77 77 SSE 5 7 29.89 1012 10 16 0.00 0.00
11:59 pm 23:59 Partly Cloudy 81 27.2 74 23.3 79 79 W 8 13 29.90 1013 10 16 0.00 0.00

Powered by AerisWeather